Regional Weather Roundup
Issued by NWS

Home | Current Version | Previous Version | Text Only | Print | Product List | Glossary Off
Versions: 1 2 3 4 5 6 7 8 9 10 11 12 13 14 15 16 17 18 19 20 21 22 23 24 25 26 27

000
ASUS45 KTFX 061610
RWRMT
MONTANA REGIONAL WEATHER ROUNDUP
NATIONAL WEATHER SERVICE GREAT FALLS MT
900 AM MST TUE DEC 06 2016

NOTE: "FAIR" INDICATES FEW OR NO CLOUDS BELOW 12000 FEET WITH NO
SIGNIFICANT WEATHER AND/OR OBSTRUCTIONS TO VISIBILITY.

MTZ001>007-043-061700-
WEST OF THE DIVIDE

CITY           SKY/WX    TMP DP  RH WIND       PRES   REMARKS
KALISPELL      MOCLDY    14   4  64 N17       30.00S WCI  -3
MISSOULA       MOCLDY    19   9  65 SE14      29.96R WCI   6
BUTTE          CLOUDY     9   2  73 VRB5      29.84S
MULLAN PASS    MOCLDY     7   4  87 SE6       29.74R WCI  -3
ANACONDA         N/A      7   3  85 N6        29.89R WCI  -3
DEER LODGE       N/A      7   1  78 NW3       29.94R
EUREKA           N/A      3   0  85 CALM      30.07R
HAMILTON         N/A     18  12  79 CALM      29.91S
LIBBY            N/A     12  10  92 CALM      30.03S
PLAINS           N/A     14   6  70 CALM      30.00S
RONAN            N/A     15  10  80 CALM      29.98S
$$

MTZ008-052>055-061700-
SOUTHWEST MONTANA

CITY           SKY/WX    TMP DP  RH WIND       PRES   REMARKS
BOZEMAN        CLOUDY    10   4  76 NW7       29.96R WCI  -1
DILLON         CLOUDY     4  -2  76 CALM      29.86S
W YELLOWSTONE  CLOUDY   N/A N/A N/A CALM      29.80F
ENNIS          PTCLDY     5   0  78 CALM      29.91S
THREE FORKS      N/A     12 -35  10 N6        29.97R WCI   3
TWIN BRIDGES     N/A     10   1  67 N7        29.88F WCI  -1
$$

MTZ009-010-012-014-046-048-049-054-061700-
EAST SLOPES AND CENTRAL MONTANA

CITY           SKY/WX    TMP DP  RH WIND       PRES   REMARKS
CUT BANK       CLOUDY    -4  -9  79 N18       30.15R HAZE    WCI -26
GREAT FALLS    CLOUDY     0  -4  83 N6        30.15R WCI -12
MALMSTROM AFB  FLURRIES   1  -3  83 N5        30.18R
HELENA         CLOUDY     8  -1  66 W7        30.06R WCI  -3
AUGUSTA        FLURRIES  -3  -7  81 N18       30.06S WCI -25
BOWMANS CRNR   FLURRIES  -4  -7  87 NE14      30.06R WCI -24
CHOTEAU          N/A      0  -8  71 MISG      30.15R
CONRAD           N/A     -1  -7  76 NW7       30.14S WCI -14
FAIRFIELD      FLURRIES  -1  -7  74 NW10      30.12S WCI -17
POWER          FLURRIES  -2  -6  80 NW12      30.13R WCI -19
RAYNESFORD     FLURRIES  -1  -5  84 W5        30.11S
ULM            FLURRIES   0  -4  82 N13       30.16R WCI -18
$$

MTZ011-013-016-021-045-047-050-051-061700-
NORTH CENTRAL MONTANA

CITY           SKY/WX    TMP DP  RH WIND       PRES   REMARKS
HAVRE          CLOUDY    -1  -6  79 NW9       30.25R WCI -16
LEWISTOWN      CLOUDY     0  -3  87 W8        30.07R WCI -14
N BAR RANCH    CLOUDY     3  -6  66 NW12G22   30.01R WCI -13
CHINOOK          N/A      0  -8  71 W17       30.25R WCI -21
DENTON         FLURRIES  -2  -5  84 NW10G28   30.10S WCI -18
GEYSER         MOCLDY     0  -6  77 W16       30.07R WCI -20
GRASS RANGE      N/A      3  -2  81 W21       30.04R WCI -18
JUDITH GAP     FLURRIES   0  -4  83 N21G26    29.99R WCI -23
ROY              N/A      1  -3  83 MISG      30.06S
STANFORD       MOCLDY    -3  -7  83 NE1       30.04S
WINIFRED         N/A     -1  -4  87 MISG      30.10R
$$

MTZ017>020-022>027-061-062-061700-
NORTHEAST MONTANA

CITY           SKY/WX    TMP DP  RH WIND       PRES   REMARKS
GLASGOW        CLEAR     -1  -9  68 NW24G32   30.15R WCI -25
JORDAN           N/A      1  -6  72 NW20      30.14R WCI -20
SIDNEY         CLOUDY     2  -5  72 NW22G32   30.07R WCI -20
WOLF POINT     CLOUDY     3  -7  63 NW22G29   30.15R WCI -19
PLENTYWOOD       N/A      1  -2  85 NW25      29.99S WCI -22
POPLAR           N/A      1  -8  66 W17       30.12R WCI -19
SCOBEY           N/A      0 -12  56 W20       30.03R WCI -22
$$

MTZ028>42-056>058-061700-
SOUTHCENTRAL AND SOUTHEAST MONTANA

CITY           SKY/WX    TMP DP  RH WIND       PRES   REMARKS
BAKER          CLOUDY     3  -3  76 NW24G31   30.01R WCI -20
BILLINGS       FLURRIES   9   4  80 N6        30.06R WCI  -1
LIVINGSTON     CLOUDY     7   2  80 E3        29.96R
MILES CITY     SUNNY      4  -5  66 NW16G25   30.12R WCI -15
BIG TIMBER     CLOUDY     5   1  85 E5        30.01S
EKALAKA          N/A     -1  -8  72 W16       29.95R WCI -21
FORSYTH          N/A      3  -4  72 NW12G17   30.14S WCI -13
HARLOWTON      CLOUDY     4  -2  78 N24       29.99R WCI -19
LAUREL           N/A      9   0  67 N2        30.03R
$$

REGIONAL REPORTS...DAKOTAS

CITY           SKY/WX    TMP DP  RH WIND       PRES   REMARKS
WILLISTON      CLOUDY     4  -2  76 NW20      30.03R WCI -17
MINOT          SNOW      10   6  84 W35G49    29.80R VSB 1/4 WCI -13
DICKINSON      MIX PCPN   1  -5  75 NW31G40   29.91R VSB 3/4 WCI -25
BEACH          LGT SNOW   0  -4  85 NW25G33   30.04R WCI -25
CROSBY         LGT SNOW   7   1  78 NW30G37   29.99R WCI -17
TIOGA          LGT SNOW   5   3  92 NW29G38   29.93S WCI -19
WATFORD CITY   CLOUDY     1  -2  85 W22G30    30.00S FOG     WCI -21
BISMARCK       LGT SNOW   9   7  92 NW25G33   29.85R VSB 1   WCI -12
GRAND FORKS    SNOW      29  26  89 NW35G44   29.29R VSB 1/2 WCI  12
FARGO          LGT SNOW  22  18  85 W33G45    29.42R VSB 3/4 WCI   3
BUFFALO SD       N/A      4  -3  73 NW30G37   29.90R WCI -21
RAPID CITY     SUNNY     13   2  61 N21       29.97R WCI  -5
$$

REGIONAL REPORTS...WYOMING/IDAHO/WASHINGTON

CITY           SKY/WX    TMP DP  RH WIND       PRES   REMARKS
GILLETTE       SUNNY      1  -2  87 W9        29.99R WCI -14
SHERIDAN       CLOUDY     7   1  76 W10       30.03S WCI  -8
BUFFALO WY     CLOUDY     6   0  76 NW7       29.96R WCI  -6
CODY           FLURRIES   4   1  88 CALM      29.93R
YELLOWSTONE LA   N/A     -8 -10  91 NW3       29.76S
IDAHO FALLS    CLOUDY    10   4  76 NW8       29.86F WCI  -2
SALMON         CLOUDY     9   1  72 CALM      29.93S
BOISE          LGT SNOW  24  20  84 SE7       29.89S FOG     WCI  16
SPOKANE        MOCLDY    22  13  68 N8        29.96R WCI  12
$$

REGIONAL REPORTS...ALBERTA

CITY           SKY/WX    TMP DP  RH WIND       PRES   REMARKS
EDMONTON       CLOUDY    -4 -13  65 NW8       30.33R WCI -19
CALGARY        CRYSTALS  -6 -17  59 NW14G21   30.19R WCI -26
LETHBRIDGE     FLURRIES  -6 -11  77 NW8       30.26S WCI -21
MEDICINE HAT   MOCLDY    -6 -11  77 W7        30.29R WCI -20
WATERTON GATE    N/A     -8 -11  84 NW1         N/A
CARDSTON         N/A     -6 -11  77 SW3         N/A
MILK RIVER       N/A     -4  -9  77 N15         N/A  WCI -25
$$

REGIONAL REPORTS...SASKATCHEWAN

CITY           SKY/WX    TMP DP  RH WIND       PRES   REMARKS
SWIFT CURRENT  LGT SNOW  -2  -6  84 NW22G28   30.08S WCI -26
REGINA         LGT SNOW   3   0  85 NW22G28   30.03R BLWGSNOWWCI -19
SASKATOON      PTCLDY    -2  -8  78 NW16G22   30.16R WCI -23
CYPRESS HILLS    N/A    -11 -17  77 NW12G22     N/A  WCI -31
VAL MARIE        N/A     -8 -15  71 W5          N/A
ASSINIBOIA       N/A     -4 -11  71 NW15        N/A  WCI -25
$$




USA.gov is the U.S. government's official web portal to all federal, state and local government web resources and services.